Simultaneous Nadir Overpasses (SNOs) Predictions

Prediction of SNOs between FY3D and METOP-A Satellite Orbit:

Table of predicted SNOs for the next 14.0 days since TLE Epoch: 10/12/2019
Index Date (FY3D) Time (FY3D) Lat,Lon (FY3D) SZA (FY3D ) Date (METOP-A) Time (METOP-A) Lat,Lon (METOP-A) SZA (METOP-A ) Distance(km) Time Diff (sec)
1 10/24/2019 14:54:49 -75.48, 122.43 92.60 10/24/2019 14:55:55 -75.47, 125.67 92.74 90.22 66
2 10/24/2019 15:45:31 75.35, -69.85 87.27 10/24/2019 15:46:39 75.27, -67.58 87.10 64.47 68
3 10/24/2019 16:36:13 -75.24, 97.79 92.85 10/24/2019 16:37:23 -75.16, 99.43 92.99 47.40 70
4 10/24/2019 17:26:54 75.06, -94.36 86.97 10/24/2019 17:28:06 75.01, -93.66 86.89 20.64 72
5 10/24/2019 18:17:36 -74.95, 73.27 93.15 10/24/2019 18:18:50 -74.90, 73.37 93.20 5.64 74
6 10/24/2019 19:08:20 74.91,-119.30 86.83 10/24/2019 19:09:30 74.90,-119.32 86.81 1.17 70
7 10/24/2019 19:59:04 -74.89, 48.05 93.18 10/24/2019 20:00:12 -74.89, 47.98 93.20 2.17 68
8 10/24/2019 20:49:49 74.90,-144.65 86.84 10/24/2019 20:50:52 74.88,-144.71 86.82 2.87 63
9 10/24/2019 21:40:33 -74.89, 22.70 93.16 10/24/2019 21:41:33 -74.92, 22.72 93.14 3.36 60
10 10/24/2019 22:31:18 74.89,-170.01 86.86 10/24/2019 22:32:13 74.91,-169.97 86.87 2.05 55
11 10/24/2019 23:22:02 -74.88, -2.66 93.15 10/24/2019 23:22:55 -74.90, -2.67 93.14 2.01 53
12 10/25/2019 00:12:47 74.89, 164.64 86.88 10/25/2019 00:13:35 74.89, 164.64 86.87 0.36 48
13 10/25/2019 01:03:31 -74.87, -28.01 93.13 10/25/2019 01:04:17 -74.88, -28.06 93.13 1.57 46
14 10/25/2019 01:54:16 74.88, 139.28 86.90 10/25/2019 01:54:57 74.87, 139.25 86.88 1.39 41
15 10/25/2019 02:45:00 -74.87, -53.36 93.11 10/25/2019 02:45:39 -74.86, -53.45 93.12 2.59 39
16 10/25/2019 03:35:45 74.87, 113.93 86.91 10/25/2019 03:36:19 74.85, 113.86 86.89 3.10 34
17 10/25/2019 04:26:29 -74.86, -78.72 93.09 10/25/2019 04:27:00 -74.89, -78.71 93.07 3.44 31
18 10/25/2019 05:17:14 74.87, 88.58 86.93 10/25/2019 05:17:40 74.88, 88.60 86.94 1.89 26
19 10/25/2019 06:07:58 -74.85,-104.07 93.08 10/25/2019 06:08:22 -74.87,-104.10 93.06 2.27 24
20 10/25/2019 06:58:43 74.86, 63.22 86.95 10/25/2019 06:59:02 74.87, 63.21 86.95 0.56 19
21 10/25/2019 07:49:27 -74.85,-129.43 93.06 10/25/2019 07:49:44 -74.86,-129.49 93.05 2.07 17
22 10/25/2019 08:40:12 74.86, 37.87 86.97 10/25/2019 08:40:24 74.85, 37.82 86.96 1.72 12
23 10/25/2019 09:30:56 -74.84,-154.78 93.04 10/25/2019 09:31:06 -74.84,-154.88 93.04 3.02 10
24 10/25/2019 10:21:41 74.85, 12.52 86.98 10/25/2019 10:21:46 74.83, 12.43 86.97 3.38 5
25 10/25/2019 11:12:25 -74.84, 179.87 93.02 10/25/2019 11:12:27 -74.87, 179.86 92.99 3.57 2
26 10/25/2019 12:03:10 74.84, -12.84 87.00 10/25/2019 12:03:07 74.86, -12.83 87.02 1.84 3
27 10/25/2019 12:53:54 -74.83, 154.51 93.01 10/25/2019 12:53:49 -74.85, 154.47 92.99 2.60 5
28 10/25/2019 13:44:39 74.84, -38.19 87.02 10/25/2019 13:44:29 74.84, -38.22 87.02 0.97 10
29 10/25/2019 14:35:23 -74.82, 129.16 92.99 10/25/2019 14:35:11 -74.83, 129.08 92.98 2.55 12
30 10/25/2019 15:26:08 74.83, -63.55 87.03 10/25/2019 15:25:51 74.82, -63.61 87.03 2.09 17
31 10/25/2019 16:16:52 -74.82, 103.81 92.97 10/25/2019 16:16:33 -74.81, 103.69 92.97 3.46 19
32 10/25/2019 17:07:37 74.82, -88.90 87.05 10/25/2019 17:07:12 74.85, -88.87 87.08 3.34 25
33 10/25/2019 17:58:22 -74.86, 78.32 92.90 10/25/2019 17:57:54 -74.84, 78.43 92.92 3.58 28
34 10/25/2019 18:49:06 74.82,-114.25 87.07 10/25/2019 18:48:34 74.83,-114.26 87.09 1.90 32
35 10/25/2019 19:39:50 -74.80, 53.10 92.94 10/25/2019 19:39:16 -74.83, 53.04 92.91 2.97 34
36 10/25/2019 20:30:35 74.81,-139.61 87.09 10/25/2019 20:29:56 74.82,-139.65 87.10 1.40 39
37 10/25/2019 21:21:19 -74.80, 27.75 92.92 10/25/2019 21:20:38 -74.81, 27.65 92.90 3.03 41
38 10/25/2019 22:12:04 74.80,-164.96 87.10 10/25/2019 22:11:18 74.80,-165.04 87.11 2.48 46
39 10/25/2019 23:02:49 -74.84, 2.26 92.85 10/25/2019 23:01:59 -74.84, 2.39 92.85 3.80 50
40 10/25/2019 23:53:33 74.80, 169.68 87.12 10/25/2019 23:52:39 74.83, 169.70 87.16 3.32 54
41 10/26/2019 00:44:18 -74.83, -23.09 92.84 10/26/2019 00:43:21 -74.82, -23.00 92.84 3.12 57
42 10/26/2019 01:35:02 74.79, 144.33 87.14 10/26/2019 01:34:01 74.81, 144.31 87.17 2.06 61
43 10/26/2019 02:25:47 -74.83, -48.45 92.82 10/26/2019 02:24:43 -74.80, -48.39 92.84 3.28 64
44 10/26/2019 03:16:31 74.79, 118.98 87.16 10/26/2019 03:15:23 74.79, 118.92 87.17 1.83 68




NCC Satellite Simultaneous Nadir Overpasses (SNOs) Prediction Service
